Time,TemperatureF,DewpointF,PressureIn,WindDirection,WindDirectionDegrees,WindSpeedMPH,WindSpeedGustMPH,Humidity,HourlyPrecipIn,Conditions,Clouds,dailyrainin,SoftwareType,DateUTC
2013-08-06 00:02:00,47.4,44.3,29.96,NNW,338,0.0,0.0,89,0.00,,---,0.01,VWS V14.01,2013-08-06 06:02:00,
2013-08-06 00:07:00,47.4,44.3,29.96,NNW,338,3.0,3.0,89,0.00,,---,0.00,VWS V14.01,2013-08-06 06:07:00,
2013-08-06 00:12:00,47.2,44.1,29.96,NNW,338,0.0,0.0,89,0.00,,---,0.00,VWS V14.01,2013-08-06 06:12:00,
2013-08-06 00:17:00,47.1,44.0,29.96,NNW,338,0.0,0.0,89,0.00,,---,0.00,VWS V14.01,2013-08-06 06:17:00,
2013-08-06 00:22:00,46.8,43.7,29.96,NNW,338,1.0,1.0,89,0.00,,---,0.00,VWS V14.01,2013-08-06 06:22:00,
2013-08-06 00:27:00,46.7,43.9,29.96,NNW,338,0.0,0.0,90,0.00,,---,0.00,VWS V14.01,2013-08-06 06:27:00,
2013-08-06 00:32:00,46.4,43.6,29.96,NNW,338,4.0,4.0,90,0.00,,---,0.00,VWS V14.01,2013-08-06 06:32:00,
2013-08-06 00:37:00,46.3,43.8,29.96,NNW,338,6.0,6.0,91,0.00,,---,0.00,VWS V14.01,2013-08-06 06:37:00,
2013-08-06 00:42:00,46.3,43.8,29.96,NNW,338,5.0,5.0,91,0.00,,---,0.00,VWS V14.01,2013-08-06 06:42:00,
2013-08-06 00:47:00,46.5,44.3,29.96,NNW,338,3.0,4.0,92,0.00,,---,0.00,VWS V14.01,2013-08-06 06:47:00,
2013-08-06 00:52:00,46.5,44.3,29.96,NNW,338,0.0,0.0,92,0.00,,---,0.00,VWS V14.01,2013-08-06 06:52:00,
2013-08-06 00:57:00,46.5,44.3,29.96,NNW,338,2.0,4.0,92,0.00,,---,0.00,VWS V14.01,2013-08-06 06:57:00,
2013-08-06 01:02:00,46.5,44.3,29.96,NNW,338,0.0,0.0,92,0.00,,---,0.00,VWS V14.01,2013-08-06 07:02:00,
2013-08-06 01:07:00,46.6,44.4,29.96,NNW,338,0.0,0.0,92,0.00,,---,0.00,VWS V14.01,2013-08-06 07:07:00,
2013-08-06 01:12:00,46.6,44.4,29.96,NNW,338,0.0,0.0,92,0.00,,---,0.00,VWS V14.01,2013-08-06 07:12:00,
2013-08-06 01:17:00,46.6,44.1,29.96,NNW,338,0.0,0.0,91,0.00,,---,0.00,VWS V14.01,2013-08-06 07:17:00,
2013-08-06 01:22:00,46.4,43.9,29.96,NNW,338,2.0,2.0,91,0.00,,---,0.00,VWS V14.01,2013-08-06 07:22:00,
2013-08-06 01:27:00,46.3,43.8,29.96,NNW,338,4.0,4.0,91,0.00,,---,0.00,VWS V14.01,2013-08-06 07:27:00,
2013-08-06 01:32:00,46.4,43.9,29.96,NNW,338,5.0,5.0,91,0.00,,---,0.00,VWS V14.01,2013-08-06 07:32:00,
2013-08-06 01:37:00,46.4,43.9,29.96,NNW,338,0.0,0.0,91,0.00,,---,0.00,VWS V14.01,2013-08-06 07:37:00,
2013-08-06 01:42:00,46.2,43.7,29.96,NNW,338,0.0,0.0,91,0.00,,---,0.00,VWS V14.01,2013-08-06 07:42:00,
2013-08-06 01:47:00,46.2,44.0,29.95,NNW,338,0.0,0.0,92,0.00,,---,0.00,VWS V14.01,2013-08-06 07:47:00,
2013-08-06 01:52:00,46.2,44.0,29.95,NNW,338,4.0,4.0,92,0.00,,---,0.00,VWS V14.01,2013-08-06 07:52:00,
2013-08-06 01:57:00,46.4,44.2,29.95,NNW,338,0.0,0.0,92,0.00,,---,0.00,VWS V14.01,2013-08-06 07:57:00,
2013-08-06 02:02:00,46.6,44.4,29.95,NNW,338,2.0,2.0,92,0.00,,---,0.00,VWS V14.01,2013-08-06 08:02:00,
2013-08-06 02:07:00,46.6,44.4,29.96,NNW,338,1.0,1.0,92,0.00,,---,0.00,VWS V14.01,2013-08-06 08:07:00,
2013-08-06 02:12:00,46.5,44.0,29.96,NNW,338,0.0,0.0,91,0.00,,---,0.00,VWS V14.01,2013-08-06 08:12:00,
2013-08-06 02:17:00,46.2,43.7,29.95,NNW,338,0.0,0.0,91,0.00,,---,0.00,VWS V14.01,2013-08-06 08:17:00,
2013-08-06 02:22:00,46.0,43.5,29.95,NNW,338,0.0,0.0,91,0.00,,---,0.00,VWS V14.01,2013-08-06 08:22:00,
2013-08-06 02:27:00,45.9,43.7,29.95,NNW,338,0.0,2.0,92,0.00,,---,0.00,VWS V14.01,2013-08-06 08:27:00,
2013-08-06 02:32:00,45.8,43.6,29.95,NNW,338,0.0,0.0,92,0.00,,---,0.00,VWS V14.01,2013-08-06 08:32:00,
2013-08-06 02:37:00,45.8,43.6,29.95,NNW,338,0.0,0.0,92,0.00,,---,0.00,VWS V14.01,2013-08-06 08:37:00,
2013-08-06 02:42:00,45.7,43.5,29.95,NNW,338,0.0,0.0,92,0.00,,---,0.00,VWS V14.01,2013-08-06 08:42:00,
2013-08-06 02:47:00,45.6,43.4,29.95,NNW,338,2.0,3.0,92,0.00,,---,0.00,VWS V14.01,2013-08-06 08:47:00,
2013-08-06 02:52:00,45.6,43.4,29.94,NNW,338,3.0,3.0,92,0.00,,---,0.00,VWS V14.01,2013-08-06 08:52:00,
2013-08-06 02:57:00,45.6,43.4,29.94,NNW,338,0.0,0.0,92,0.00,,---,0.00,VWS V14.01,2013-08-06 08:57:00,
2013-08-06 03:02:00,45.4,43.2,29.94,NNW,338,0.0,0.0,92,0.00,,---,0.00,VWS V14.01,2013-08-06 09:02:00,
2013-08-06 03:07:00,45.3,43.1,29.94,NNW,338,3.0,3.0,92,0.00,,---,0.00,VWS V14.01,2013-08-06 09:07:00,
2013-08-06 03:12:00,45.1,42.9,29.94,NNW,338,2.0,2.0,92,0.00,,---,0.00,VWS V14.01,2013-08-06 09:12:00,
2013-08-06 03:17:00,45.1,42.9,29.94,NNW,338,0.0,0.0,92,0.00,,---,0.00,VWS V14.01,2013-08-06 09:17:00,
2013-08-06 03:23:00,45.1,43.2,29.95,NNW,338,0.0,0.0,93,0.00,,---,0.00,VWS V14.01,2013-08-06 09:23:00,
2013-08-06 03:28:00,45.0,43.1,29.95,NNW,338,0.0,0.0,93,0.00,,---,0.00,VWS V14.01,2013-08-06 09:28:00,
2013-08-06 03:33:00,44.9,43.0,29.95,NNW,338,0.0,0.0,93,0.00,,---,0.00,VWS V14.01,2013-08-06 09:33:00,
2013-08-06 03:38:00,44.9,43.0,29.94,NNW,338,0.0,0.0,93,0.00,,---,0.00,VWS V14.01,2013-08-06 09:38:00,
2013-08-06 03:43:00,45.0,43.1,29.95,NNW,338,0.0,0.0,93,0.00,,---,0.00,VWS V14.01,2013-08-06 09:43:00,
2013-08-06 03:48:00,45.0,43.4,29.95,NNW,338,0.0,0.0,94,0.00,,---,0.00,VWS V14.01,2013-08-06 09:48:00,
2013-08-06 03:52:00,44.9,43.0,29.94,NNW,338,0.0,0.0,93,0.00,,---,0.00,VWS V14.01,2013-08-06 09:52:00,
2013-08-06 03:57:00,44.8,43.2,29.94,NNW,338,2.0,3.0,94,0.00,,---,0.00,VWS V14.01,2013-08-06 09:57:00,
2013-08-06 04:03:00,44.9,43.3,29.94,NNW,338,0.0,0.0,94,0.00,,---,0.00,VWS V14.01,2013-08-06 10:03:00,
2013-08-06 04:08:00,45.0,43.4,29.94,NNW,338,0.0,0.0,94,0.00,,---,0.00,VWS V14.01,2013-08-06 10:08:00,
2013-08-06 04:13:00,44.9,43.3,29.94,NNW,338,0.0,0.0,94,0.00,,---,0.00,VWS V14.01,2013-08-06 10:13:00,
2013-08-06 04:18:00,44.6,42.7,29.95,NNW,338,0.0,0.0,93,0.00,,---,0.00,VWS V14.01,2013-08-06 10:18:00,
2013-08-06 04:23:00,44.5,42.6,29.94,NNW,338,3.0,4.0,93,0.00,,---,0.00,VWS V14.01,2013-08-06 10:23:00,
2013-08-06 04:28:00,44.7,43.1,29.94,NNW,338,6.0,6.0,94,0.00,,---,0.00,VWS V14.01,2013-08-06 10:28:00,
2013-08-06 04:33:00,44.2,42.0,29.94,NNW,338,5.0,6.0,92,0.00,,---,0.00,VWS V14.01,2013-08-06 10:33:00,
2013-08-06 04:38:00,43.8,41.6,29.94,NNW,338,4.0,5.0,92,0.00,,---,0.00,VWS V14.01,2013-08-06 10:38:00,
2013-08-06 04:43:00,43.8,41.9,29.94,NNW,338,0.0,0.0,93,0.00,,---,0.00,VWS V14.01,2013-08-06 10:43:00,
2013-08-06 04:48:00,43.4,41.2,29.94,NNW,338,2.0,2.0,92,0.00,,---,0.00,VWS V14.01,2013-08-06 10:48:00,
2013-08-06 04:53:00,43.1,40.9,29.94,NNW,338,0.0,0.0,92,0.00,,---,0.00,VWS V14.01,2013-08-06 10:53:00,
2013-08-06 04:58:00,42.9,41.0,29.94,NNW,338,0.0,0.0,93,0.00,,---,0.00,VWS V14.01,2013-08-06 10:58:00,
2013-08-06 05:03:00,42.8,40.9,29.94,NNW,338,4.0,4.0,93,0.00,,---,0.00,VWS V14.01,2013-08-06 11:03:00,
2013-08-06 05:08:00,42.6,40.7,29.94,NNW,338,5.0,5.0,93,0.00,,---,0.00,VWS V14.01,2013-08-06 11:08:00,
2013-08-06 05:13:00,42.4,40.5,29.94,NNW,338,5.0,6.0,93,0.00,,---,0.00,VWS V14.01,2013-08-06 11:13:00,
2013-08-06 05:18:00,42.6,41.0,29.94,NNW,338,2.0,5.0,94,0.00,,---,0.00,VWS V14.01,2013-08-06 11:18:00,
2013-08-06 05:23:00,42.9,41.3,29.95,NNW,338,2.0,2.0,94,0.00,,---,0.00,VWS V14.01,2013-08-06 11:23:00,
2013-08-06 05:28:00,42.9,41.3,29.94,NNW,338,0.0,0.0,94,0.00,,---,0.00,VWS V14.01,2013-08-06 11:28:00,
2013-08-06 05:33:00,42.8,41.2,29.95,NNW,338,0.0,0.0,94,0.00,,---,0.00,VWS V14.01,2013-08-06 11:33:00,
2013-08-06 05:38:00,42.9,41.3,29.95,NNW,338,1.0,2.0,94,0.00,,---,0.00,VWS V14.01,2013-08-06 11:38:00,
2013-08-06 05:43:00,42.5,40.9,29.95,NNW,338,5.0,5.0,94,0.00,,---,0.00,VWS V14.01,2013-08-06 11:43:00,
2013-08-06 05:48:00,42.3,40.7,29.95,NNW,338,2.0,4.0,94,0.00,,---,0.00,VWS V14.01,2013-08-06 11:48:00,
2013-08-06 05:53:00,42.4,41.1,29.95,NNW,338,1.0,1.0,95,0.00,,---,0.00,VWS V14.01,2013-08-06 11:53:00,
2013-08-06 05:58:00,42.5,41.2,29.95,NNW,338,2.0,2.0,95,0.00,,---,0.00,VWS V14.01,2013-08-06 11:58:00,
2013-08-06 06:03:00,42.7,41.4,29.95,NNW,338,4.0,5.0,95,0.00,,---,0.00,VWS V14.01,2013-08-06 12:03:00,
2013-08-06 06:08:00,42.5,40.9,29.95,NNW,338,5.0,5.0,94,0.00,,---,0.00,VWS V14.01,2013-08-06 12:08:00,
2013-08-06 06:13:00,42.4,40.8,29.95,NNW,338,5.0,6.0,94,0.00,,---,0.00,VWS V14.01,2013-08-06 12:13:00,
2013-08-06 06:18:00,42.6,41.3,29.95,NNW,338,3.0,4.0,95,0.00,,---,0.00,VWS V14.01,2013-08-06 12:18:00,
2013-08-06 06:23:00,42.9,41.6,29.95,NNW,338,0.0,0.0,95,0.00,,---,0.00,VWS V14.01,2013-08-06 12:23:00,
2013-08-06 06:28:00,42.7,41.1,29.95,NNW,338,2.0,3.0,94,0.00,,---,0.00,VWS V14.01,2013-08-06 12:28:00,
2013-08-06 06:33:00,42.3,40.7,29.96,NNW,338,0.0,0.0,94,0.00,,---,0.00,VWS V14.01,2013-08-06 12:33:00,
2013-08-06 06:38:00,42.3,40.7,29.96,NNW,342,0.0,0.0,94,0.00,,---,0.00,VWS V14.01,2013-08-06 12:38:00,
2013-08-06 06:43:00,42.4,41.1,29.96,NNW,342,0.0,0.0,95,0.00,,---,0.00,VWS V14.01,2013-08-06 12:43:00,
2013-08-06 06:48:00,42.5,41.2,29.96,NNW,342,0.0,0.0,95,0.00,,---,0.00,VWS V14.01,2013-08-06 12:48:00,
2013-08-06 06:53:00,42.6,41.3,29.96,NNW,342,0.0,2.0,95,0.00,,---,0.00,VWS V14.01,2013-08-06 12:53:00,
2013-08-06 06:58:00,42.5,41.2,29.96,NNW,342,0.0,0.0,95,0.00,,---,0.00,VWS V14.01,2013-08-06 12:58:00,
2013-08-06 07:03:00,42.4,41.1,29.96,NNW,342,0.0,2.0,95,0.00,,---,0.00,VWS V14.01,2013-08-06 13:03:00,
2013-08-06 07:08:00,42.2,40.9,29.97,NNW,342,0.0,0.0,95,0.00,,---,0.00,VWS V14.01,2013-08-06 13:08:00,
2013-08-06 07:13:00,42.3,41.0,29.97,NNW,342,5.0,5.0,95,0.00,,---,0.00,VWS V14.01,2013-08-06 13:13:00,
2013-08-06 07:18:00,42.8,41.5,29.97,NNW,342,5.0,6.0,95,0.00,,---,0.00,VWS V14.01,2013-08-06 13:18:00,
2013-08-06 07:23:00,43.0,41.7,29.97,NNW,342,0.0,2.0,95,0.00,,---,0.00,VWS V14.01,2013-08-06 13:23:00,
2013-08-06 07:28:00,42.8,41.5,29.97,NNW,342,1.0,2.0,95,0.00,,---,0.00,VWS V14.01,2013-08-06 13:28:00,
2013-08-06 07:33:00,42.6,41.3,29.97,NNW,342,0.0,0.0,95,0.00,,---,0.00,VWS V14.01,2013-08-06 13:33:00,
2013-08-06 07:38:00,42.6,41.3,29.97,NNW,342,0.0,0.0,95,0.00,,---,0.00,VWS V14.01,2013-08-06 13:38:00,
2013-08-06 07:43:00,42.7,41.4,29.97,NNW,342,0.0,0.0,95,0.00,,---,0.00,VWS V14.01,2013-08-06 13:43:00,
2013-08-06 07:48:00,42.6,41.3,29.97,NNW,342,0.0,0.0,95,0.00,,---,0.00,VWS V14.01,2013-08-06 13:48:00,
2013-08-06 07:53:00,42.4,41.1,29.97,NNW,342,0.0,0.0,95,0.00,,---,0.00,VWS V14.01,2013-08-06 13:53:00,
2013-08-06 07:58:00,42.1,40.8,29.97,NNW,342,2.0,2.0,95,0.00,,---,0.00,VWS V14.01,2013-08-06 13:58:00,
2013-08-06 08:03:00,42.1,40.8,29.97,NNW,342,3.0,3.0,95,0.00,,---,0.00,VWS V14.01,2013-08-06 14:03:00,
2013-08-06 08:08:00,42.3,41.0,29.97,NNW,342,3.0,4.0,95,0.00,,---,0.00,VWS V14.01,2013-08-06 14:08:00,
2013-08-06 08:13:00,42.6,41.5,29.97,NNW,342,2.0,2.0,96,0.00,,---,0.00,VWS V14.01,2013-08-06 14:13:00,
2013-08-06 08:18:00,43.4,42.3,29.97,NNW,342,3.0,3.0,96,0.00,,---,0.00,VWS V14.01,2013-08-06 14:18:00,
2013-08-06 08:23:00,44.7,43.9,29.97,NNW,342,0.0,0.0,97,0.00,,---,0.00,VWS V14.01,2013-08-06 14:23:00,
2013-08-06 08:28:00,46.1,45.3,29.97,NNW,342,0.0,0.0,97,0.00,,---,0.00,VWS V14.01,2013-08-06 14:28:00,
2013-08-06 08:33:00,47.2,46.4,29.97,NNW,342,0.0,0.0,97,0.00,,---,0.00,VWS V14.01,2013-08-06 14:33:00,
2013-08-06 08:38:00,48.2,47.4,29.97,NNW,342,1.0,1.0,97,0.00,,---,0.00,VWS V14.01,2013-08-06 14:38:00,
2013-08-06 08:43:00,48.8,48.0,29.97,NNW,342,2.0,2.0,97,0.00,,---,0.00,VWS V14.01,2013-08-06 14:43:00,
2013-08-06 08:48:00,49.5,48.7,29.97,NNW,342,0.0,0.0,97,0.00,,---,0.00,VWS V14.01,2013-08-06 14:48:00,
2013-08-06 08:53:00,50.5,49.4,29.96,NNW,342,0.0,1.0,96,0.00,,---,0.00,VWS V14.01,2013-08-06 14:53:00,
2013-08-06 08:58:00,51.5,50.4,29.96,NNW,342,0.0,0.0,96,0.00,,---,0.00,VWS V14.01,2013-08-06 14:58:00,
2013-08-06 09:03:00,52.5,51.1,29.96,NNW,342,0.0,0.0,95,0.00,,---,0.00,VWS V14.01,2013-08-06 15:03:00,
2013-08-06 09:08:00,52.8,50.5,29.96,NNW,342,0.0,0.0,92,0.00,,---,0.00,VWS V14.01,2013-08-06 15:08:00,
2013-08-06 09:13:00,53.5,50.9,29.95,NNW,342,1.0,1.0,91,0.00,,---,0.00,VWS V14.01,2013-08-06 15:13:00,
2013-08-06 09:18:00,54.1,50.9,29.95,NNW,342,1.0,1.0,89,0.00,,---,0.00,VWS V14.01,2013-08-06 15:18:00,
2013-08-06 09:23:00,55.3,50.2,29.95,NNW,342,0.0,0.0,83,0.00,,---,0.00,VWS V14.01,2013-08-06 15:23:00,
2013-08-06 09:28:00,56.3,50.9,29.95,NNW,342,4.0,5.0,82,0.00,,---,0.00,VWS V14.01,2013-08-06 15:28:00,
2013-08-06 09:33:00,56.7,50.9,29.95,NNW,342,0.0,2.0,81,0.00,,---,0.00,VWS V14.01,2013-08-06 15:33:00,
2013-08-06 09:38:00,57.6,50.5,29.95,NNW,342,0.0,5.0,77,0.00,,---,0.00,VWS V14.01,2013-08-06 15:38:00,
2013-08-06 09:43:00,57.5,50.0,29.95,NNW,342,0.0,2.0,76,0.00,,---,0.00,VWS V14.01,2013-08-06 15:43:00,
2013-08-06 09:48:00,57.7,50.2,29.94,NNW,342,0.0,0.0,76,0.00,,---,0.00,VWS V14.01,2013-08-06 15:48:00,
2013-08-06 09:53:00,57.8,49.9,29.94,NNW,342,2.0,2.0,75,0.00,,---,0.00,VWS V14.01,2013-08-06 15:53:00,
2013-08-06 09:58:00,58.2,51.4,29.94,NNW,342,2.0,2.0,78,0.00,,---,0.00,VWS V14.01,2013-08-06 15:58:00,
2013-08-06 10:03:00,58.9,51.7,29.94,North,350,4.0,5.0,77,0.00,,---,0.00,VWS V14.01,2013-08-06 16:03:00,
2013-08-06 10:08:00,58.9,50.6,29.94,North,350,0.0,1.0,74,0.00,,---,0.00,VWS V14.01,2013-08-06 16:08:00,
2013-08-06 10:13:00,59.6,50.2,29.94,North,350,0.0,1.0,71,0.00,,---,0.00,VWS V14.01,2013-08-06 16:13:00,
2013-08-06 10:18:00,60.4,49.8,29.93,North,350,0.0,2.0,68,0.00,,---,0.00,VWS V14.01,2013-08-06 16:18:00,
2013-08-06 10:23:00,60.1,49.5,29.93,North,355,0.0,1.0,68,0.00,,---,0.00,VWS V14.01,2013-08-06 16:23:00,
2013-08-06 10:28:00,60.7,51.2,29.93,North,355,3.0,3.0,71,0.00,,---,0.00,VWS V14.01,2013-08-06 16:28:00,
2013-08-06 10:33:00,61.8,52.3,29.93,NNE,12,3.0,3.0,71,0.00,,---,0.00,VWS V14.01,2013-08-06 16:33:00,
2013-08-06 10:38:00,61.9,51.6,29.93,NNE,14,2.0,3.0,69,0.00,,---,0.00,VWS V14.01,2013-08-06 16:38:00,
2013-08-06 10:43:00,62.4,50.9,29.93,ENE,78,2.0,4.0,66,0.00,,---,0.00,VWS V14.01,2013-08-06 16:43:00,
2013-08-06 10:48:00,62.9,51.4,29.93,ENE,78,2.0,2.0,66,0.00,,---,0.00,VWS V14.01,2013-08-06 16:48:00,
2013-08-06 10:53:00,63.8,51.0,29.93,ESE,117,1.0,3.0,63,0.00,,---,0.00,VWS V14.01,2013-08-06 16:53:00,
2013-08-06 10:58:00,64.2,51.8,29.92,ESE,119,1.0,2.0,64,0.00,,---,0.00,VWS V14.01,2013-08-06 16:58:00,
2013-08-06 11:03:00,64.6,53.8,29.92,SE,144,4.0,5.0,68,0.00,,---,0.00,VWS V14.01,2013-08-06 17:03:00,
2013-08-06 11:08:00,65.5,54.7,29.92,SE,136,2.0,6.0,68,0.00,,---,0.00,VWS V14.01,2013-08-06 17:08:00,
2013-08-06 11:13:00,65.1,52.6,29.92,ESE,123,2.0,4.0,64,0.00,,---,0.00,VWS V14.01,2013-08-06 17:13:00,
2013-08-06 11:18:00,65.7,51.0,29.92,SE,126,1.0,4.0,59,0.00,,---,0.00,VWS V14.01,2013-08-06 17:18:00,
2013-08-06 11:23:00,66.3,52.9,29.91,SE,126,0.0,1.0,62,0.00,,---,0.00,VWS V14.01,2013-08-06 17:23:00,
2013-08-06 11:27:00,67.8,55.2,29.91,SE,126,0.0,1.0,64,0.00,,---,0.00,VWS V14.01,2013-08-06 17:27:00,
2013-08-06 11:32:00,67.7,51.9,29.91,SE,128,0.0,1.0,57,0.00,,---,0.00,VWS V14.01,2013-08-06 17:32:00,
2013-08-06 11:37:00,67.1,50.9,29.91,SE,131,0.0,0.0,56,0.00,,---,0.00,VWS V14.01,2013-08-06 17:37:00,
2013-08-06 11:42:00,67.9,50.2,29.91,SW,229,13.0,13.0,53,0.00,,---,0.00,VWS V14.01,2013-08-06 17:42:00,
2013-08-06 11:47:00,68.1,48.8,29.90,SSW,213,12.0,13.0,50,0.00,,---,0.00,VWS V14.01,2013-08-06 17:47:00,
2013-08-06 11:52:00,68.1,47.7,29.90,SW,221,7.0,14.0,48,0.00,,---,0.00,VWS V14.01,2013-08-06 17:52:00,
2013-08-06 11:57:00,68.2,49.9,29.90,SW,215,9.0,9.0,52,0.00,,---,0.00,VWS V14.01,2013-08-06 17:57:00,
2013-08-06 12:02:00,68.1,48.2,29.90,SW,219,10.0,12.0,49,0.00,,---,0.00,VWS V14.01,2013-08-06 18:02:00,
2013-08-06 12:07:00,68.4,51.1,29.90,WSW,252,7.0,11.0,54,0.00,,---,0.00,VWS V14.01,2013-08-06 18:07:00,
2013-08-06 12:12:00,68.1,47.7,29.90,WSW,246,3.0,3.0,48,0.00,,---,0.00,VWS V14.01,2013-08-06 18:12:00,
2013-08-06 12:17:00,67.5,47.7,29.90,NW,316,9.0,12.0,49,0.00,,---,0.00,VWS V14.01,2013-08-06 18:17:00,
2013-08-06 12:22:00,66.5,47.8,29.90,NW,309,3.0,8.0,51,0.00,,---,0.00,VWS V14.01,2013-08-06 18:22:00,
2013-08-06 12:27:00,65.9,48.3,29.91,NW,309,5.0,8.0,53,0.00,,---,0.00,VWS V14.01,2013-08-06 18:27:00,
2013-08-06 12:32:00,65.2,47.7,29.91,NW,321,6.0,8.0,53,0.00,,---,0.00,VWS V14.01,2013-08-06 18:32:00,
2013-08-06 12:37:00,64.6,48.1,29.91,NW,324,3.0,5.0,55,0.00,,---,0.00,VWS V14.01,2013-08-06 18:37:00,
2013-08-06 12:42:00,63.9,50.6,29.91,NE,41,4.0,6.0,62,0.00,,---,0.00,VWS V14.01,2013-08-06 18:42:00,
2013-08-06 12:47:00,62.6,46.7,29.90,ENE,61,8.0,10.0,56,0.01,,---,0.01,VWS V14.01,2013-08-06 18:47:00,
2013-08-06 12:52:00,61.9,43.1,29.91,NE,51,9.0,9.0,50,0.01,,---,0.01,VWS V14.01,2013-08-06 18:52:00,
2013-08-06 12:57:00,61.4,41.0,29.92,NNE,18,9.0,9.0,47,0.01,,---,0.01,VWS V14.01,2013-08-06 18:57:00,
2013-08-06 13:02:00,60.8,40.5,29.92,North,355,17.0,17.0,47,0.01,,---,0.01,VWS V14.01,2013-08-06 19:02:00,
2013-08-06 13:07:00,59.7,41.6,29.92,North,355,13.0,15.0,51,0.01,,---,0.01,VWS V14.01,2013-08-06 19:07:00,
2013-08-06 13:12:00,58.3,42.7,29.93,NNE,18,10.0,11.0,56,0.01,,---,0.01,VWS V14.01,2013-08-06 19:12:00,
2013-08-06 13:17:00,57.2,43.0,29.93,NNE,25,11.0,11.0,59,0.01,,---,0.01,VWS V14.01,2013-08-06 19:17:00,
2013-08-06 13:22:00,56.7,43.8,29.93,NNE,17,4.0,4.0,62,0.01,,---,0.01,VWS V14.01,2013-08-06 19:22:00,
2013-08-06 13:27:00,56.1,46.8,29.93,West,277,10.0,11.0,71,0.01,,---,0.01,VWS V14.01,2013-08-06 19:27:00,
2013-08-06 13:32:00,55.1,47.0,29.94,WNW,288,5.0,6.0,74,0.02,,---,0.02,VWS V14.01,2013-08-06 19:32:00,
2013-08-06 13:37:00,54.6,47.5,29.94,WSW,248,8.0,9.0,77,0.02,,---,0.02,VWS V14.01,2013-08-06 19:37:00,
2013-08-06 13:42:00,54.5,47.1,29.94,WSW,244,6.0,6.0,76,0.02,,---,0.02,VWS V14.01,2013-08-06 19:42:00,
2013-08-06 13:47:00,54.4,47.0,29.94,SW,234,0.0,0.0,76,0.01,,---,0.02,VWS V14.01,2013-08-06 19:47:00,
2013-08-06 13:52:00,54.3,47.6,29.94,SW,236,5.0,5.0,78,0.01,,---,0.02,VWS V14.01,2013-08-06 19:52:00,
2013-08-06 13:57:00,54.4,48.0,29.94,SW,236,4.0,6.0,79,0.01,,---,0.02,VWS V14.01,2013-08-06 19:57:00,
2013-08-06 14:02:00,54.5,46.8,29.93,SW,236,0.0,0.0,75,0.01,,---,0.02,VWS V14.01,2013-08-06 20:02:00,
2013-08-06 14:07:00,54.8,47.7,29.93,SW,236,3.0,4.0,77,0.01,,---,0.02,VWS V14.01,2013-08-06 20:07:00,
2013-08-06 14:12:00,54.9,47.1,29.94,SW,236,3.0,3.0,75,0.01,,---,0.02,VWS V14.01,2013-08-06 20:12:00,
2013-08-06 14:17:00,55.0,49.0,29.94,SW,236,0.0,0.0,80,0.01,,---,0.02,VWS V14.01,2013-08-06 20:17:00,
2013-08-06 14:22:00,54.9,48.5,29.94,SW,236,7.0,7.0,79,0.01,,---,0.02,VWS V14.01,2013-08-06 20:22:00,
2013-08-06 14:27:00,54.6,47.5,29.94,WSW,255,6.0,6.0,77,0.01,,---,0.02,VWS V14.01,2013-08-06 20:27:00,
2013-08-06 14:32:00,54.6,48.9,29.94,WSW,255,5.0,6.0,81,0.00,,---,0.02,VWS V14.01,2013-08-06 20:32:00,
2013-08-06 14:37:00,54.7,49.3,29.94,WSW,254,0.0,0.0,82,0.00,,---,0.02,VWS V14.01,2013-08-06 20:37:00,
2013-08-06 14:42:00,54.8,46.7,29.94,West,278,14.0,15.0,74,0.00,,---,0.02,VWS V14.01,2013-08-06 20:42:00,
2013-08-06 14:47:00,55.8,46.5,29.94,West,275,7.0,7.0,71,0.00,,---,0.02,VWS V14.01,2013-08-06 20:47:00,
2013-08-06 14:52:00,55.8,48.4,29.95,WSW,249,5.0,5.0,76,0.00,,---,0.02,VWS V14.01,2013-08-06 20:52:00,
2013-08-06 14:57:00,55.5,48.4,29.94,WSW,248,0.0,1.0,77,0.00,,---,0.02,VWS V14.01,2013-08-06 20:57:00,
2013-08-06 15:02:00,55.5,48.8,29.94,WSW,248,0.0,0.0,78,0.00,,---,0.02,VWS V14.01,2013-08-06 21:02:00,
2013-08-06 15:07:00,55.6,48.5,29.94,WSW,240,0.0,0.0,77,0.00,,---,0.02,VWS V14.01,2013-08-06 21:07:00,
2013-08-06 15:12:00,55.7,49.3,29.94,WSW,241,5.0,6.0,79,0.00,,---,0.02,VWS V14.01,2013-08-06 21:12:00,
2013-08-06 15:17:00,56.0,47.1,29.94,WSW,246,0.0,0.0,72,0.00,,---,0.02,VWS V14.01,2013-08-06 21:17:00,
2013-08-06 15:22:00,56.3,48.8,29.94,WSW,246,2.0,3.0,76,0.00,,---,0.02,VWS V14.01,2013-08-06 21:22:00,
2013-08-06 15:27:00,56.7,47.0,29.95,WSW,245,3.0,4.0,70,0.00,,---,0.02,VWS V14.01,2013-08-06 21:27:00,
2013-08-06 15:32:00,57.0,48.1,29.95,SSE,163,4.0,5.0,72,0.00,,---,0.02,VWS V14.01,2013-08-06 21:32:00,
2013-08-06 15:37:00,57.4,48.1,29.95,East,92,5.0,6.0,71,0.00,,---,0.02,VWS V14.01,2013-08-06 21:37:00,
2013-08-06 15:42:00,57.5,47.0,29.96,SSW,207,4.0,4.0,68,0.00,,---,0.02,VWS V14.01,2013-08-06 21:42:00,
2013-08-06 15:47:00,57.5,48.6,29.96,South,177,3.0,4.0,72,0.00,,---,0.02,VWS V14.01,2013-08-06 21:47:00,
2013-08-06 15:52:00,57.1,47.8,29.96,West,259,7.0,8.0,71,0.00,,---,0.02,VWS V14.01,2013-08-06 21:52:00,
2013-08-06 15:57:00,56.9,47.2,29.96,WSW,257,11.0,14.0,70,0.00,,---,0.02,VWS V14.01,2013-08-06 21:57:00,
2013-08-06 16:02:00,56.7,47.8,29.97,West,268,7.0,8.0,72,0.00,,---,0.02,VWS V14.01,2013-08-06 22:02:00,
2013-08-06 16:07:00,56.8,47.5,29.97,NW,304,7.0,7.0,71,0.00,,---,0.02,VWS V14.01,2013-08-06 22:07:00,
2013-08-06 16:12:00,57.1,45.9,29.97,WNW,293,5.0,6.0,66,0.00,,---,0.02,VWS V14.01,2013-08-06 22:12:00,
2013-08-06 16:17:00,57.0,48.1,29.97,West,279,6.0,8.0,72,0.00,,---,0.02,VWS V14.01,2013-08-06 22:17:00,
2013-08-06 16:22:00,56.6,45.8,29.98,WNW,286,9.0,10.0,67,0.00,,---,0.02,VWS V14.01,2013-08-06 22:22:00,
2013-08-06 16:27:00,56.2,45.8,29.98,WNW,291,14.0,14.0,68,0.00,,---,0.02,VWS V14.01,2013-08-06 22:27:00,
2013-08-06 16:32:00,55.3,45.3,29.99,WNW,283,8.0,13.0,69,0.00,,---,0.02,VWS V14.01,2013-08-06 22:32:00,
2013-08-06 16:37:00,54.6,45.4,29.99,West,271,8.0,10.0,71,0.00,,---,0.02,VWS V14.01,2013-08-06 22:37:00,
2013-08-06 16:42:00,53.9,46.2,30.00,West,267,11.0,12.0,75,0.00,,---,0.02,VWS V14.01,2013-08-06 22:42:00,
2013-08-06 16:47:00,53.2,45.5,30.00,West,270,13.0,16.0,75,0.00,,---,0.02,VWS V14.01,2013-08-06 22:47:00,
2013-08-06 16:53:00,52.8,45.8,30.01,West,270,12.0,12.0,77,0.00,,---,0.02,VWS V14.01,2013-08-06 22:53:00,
2013-08-06 16:58:00,52.4,45.8,30.01,West,281,6.0,8.0,78,0.01,,---,0.03,VWS V14.01,2013-08-06 22:58:00,
2013-08-06 17:03:00,51.9,45.9,30.01,West,279,8.0,12.0,80,0.01,,---,0.03,VWS V14.01,2013-08-06 23:03:00,
2013-08-06 17:08:00,51.5,45.5,30.01,West,280,7.0,8.0,80,0.02,,---,0.04,VWS V14.01,2013-08-06 23:08:00,
2013-08-06 17:13:00,51.3,45.3,30.02,WNW,293,6.0,6.0,80,0.03,,---,0.05,VWS V14.01,2013-08-06 23:13:00,
2013-08-06 17:18:00,51.3,45.3,30.02,WNW,293,3.0,4.0,80,0.03,,---,0.05,VWS V14.01,2013-08-06 23:18:00,
2013-08-06 17:23:00,51.4,46.1,30.02,WNW,293,5.0,5.0,82,0.04,,---,0.06,VWS V14.01,2013-08-06 23:23:00,
2013-08-06 17:28:00,51.2,45.6,30.02,WNW,293,0.0,0.0,81,0.04,,---,0.06,VWS V14.01,2013-08-06 23:28:00,
2013-08-06 17:33:00,51.2,46.2,30.02,WNW,293,0.0,2.0,83,0.05,,---,0.07,VWS V14.01,2013-08-06 23:33:00,
2013-08-06 17:38:00,51.1,46.8,30.02,WNW,293,1.0,2.0,85,0.05,,---,0.07,VWS V14.01,2013-08-06 23:38:00,
2013-08-06 17:43:00,50.8,46.8,30.02,WNW,293,2.0,3.0,86,0.05,,---,0.07,VWS V14.01,2013-08-06 23:43:00,
2013-08-06 17:48:00,50.6,46.9,30.01,WNW,293,0.0,0.0,87,0.06,,---,0.08,VWS V14.01,2013-08-06 23:48:00,
2013-08-06 17:53:00,50.5,47.1,30.01,WNW,293,0.0,0.0,88,0.06,,---,0.08,VWS V14.01,2013-08-06 23:53:00,
2013-08-06 17:58:00,50.4,47.3,30.00,SSW,194,2.0,3.0,89,0.05,,---,0.08,VWS V14.01,2013-08-06 23:58:00,
2013-08-06 18:03:00,50.4,47.3,30.00,SSW,194,1.0,4.0,89,0.05,,---,0.08,VWS V14.01,2013-08-07 00:03:00,
2013-08-06 18:08:00,50.4,47.3,30.01,SSW,194,0.0,0.0,89,0.04,,---,0.08,VWS V14.01,2013-08-07 00:08:00,
2013-08-06 18:13:00,50.4,47.3,30.00,SSW,194,0.0,0.0,89,0.03,,---,0.08,VWS V14.01,2013-08-07 00:13:00,
2013-08-06 18:18:00,50.4,48.2,30.00,SSW,194,0.0,0.0,92,0.03,,---,0.08,VWS V14.01,2013-08-07 00:18:00,
2013-08-06 18:23:00,50.3,46.9,30.00,SSW,194,0.0,0.0,88,0.02,,---,0.08,VWS V14.01,2013-08-07 00:23:00,
2013-08-06 18:28:00,50.4,47.0,30.00,SSW,194,0.0,0.0,88,0.02,,---,0.08,VWS V14.01,2013-08-07 00:28:00,
2013-08-06 18:33:00,50.4,47.0,30.00,SSW,194,2.0,2.0,88,0.01,,---,0.08,VWS V14.01,2013-08-07 00:33:00,
2013-08-06 18:38:00,50.5,47.4,30.00,SSW,194,4.0,4.0,89,0.01,,---,0.08,VWS V14.01,2013-08-07 00:38:00,
2013-08-06 18:43:00,50.6,47.8,30.00,SSW,194,3.0,4.0,90,0.01,,---,0.08,VWS V14.01,2013-08-07 00:43:00,
2013-08-06 18:48:00,50.6,47.8,30.00,SSW,209,0.0,0.0,90,0.00,,---,0.08,VWS V14.01,2013-08-07 00:48:00,
2013-08-06 18:53:00,50.4,47.3,30.00,NW,311,4.0,4.0,89,0.00,,---,0.08,VWS V14.01,2013-08-07 00:53:00,
2013-08-06 18:58:00,50.4,46.7,30.00,SSW,211,0.0,0.0,87,0.00,,---,0.08,VWS V14.01,2013-08-07 00:58:00,
2013-08-06 19:03:00,50.5,47.1,30.00,SSW,211,0.0,1.0,88,0.00,,---,0.08,VWS V14.01,2013-08-07 01:03:00,
2013-08-06 19:08:00,50.5,47.1,30.00,NW,310,1.0,2.0,88,0.00,,---,0.08,VWS V14.01,2013-08-07 01:08:00,
2013-08-06 19:13:00,50.6,47.2,29.99,WSW,254,4.0,4.0,88,0.00,,---,0.08,VWS V14.01,2013-08-07 01:13:00,
2013-08-06 19:18:00,50.5,46.5,29.99,West,261,4.0,5.0,86,0.00,,---,0.08,VWS V14.01,2013-08-07 01:18:00,
2013-08-06 19:23:00,50.7,47.0,30.00,West,261,3.0,3.0,87,0.00,,---,0.08,VWS V14.01,2013-08-07 01:23:00,
2013-08-06 19:28:00,50.7,47.0,30.00,West,261,2.0,4.0,87,0.00,,---,0.08,VWS V14.01,2013-08-07 01:28:00,
2013-08-06 19:33:00,50.8,47.4,30.00,West,261,1.0,4.0,88,0.00,,---,0.08,VWS V14.01,2013-08-07 01:33:00,
2013-08-06 19:38:00,50.7,47.3,30.00,West,261,0.0,0.0,88,0.00,,---,0.08,VWS V14.01,2013-08-07 01:38:00,
2013-08-06 19:43:00,50.7,47.3,30.00,West,261,0.0,0.0,88,0.00,,---,0.08,VWS V14.01,2013-08-07 01:43:00,
2013-08-06 19:48:00,50.7,47.6,30.00,West,261,0.0,0.0,89,0.00,,---,0.08,VWS V14.01,2013-08-07 01:48:00,
2013-08-06 19:53:00,50.5,47.4,30.00,West,261,0.0,2.0,89,0.00,,---,0.08,VWS V14.01,2013-08-07 01:53:00,
2013-08-06 19:58:00,50.3,47.2,30.00,West,261,0.0,0.0,89,0.00,,---,0.08,VWS V14.01,2013-08-07 01:58:00,
2013-08-06 20:03:00,50.2,47.1,30.00,West,261,0.0,1.0,89,0.00,,---,0.08,VWS V14.01,2013-08-07 02:03:00,
2013-08-06 20:08:00,50.1,47.3,30.00,West,261,0.0,0.0,90,0.00,,---,0.08,VWS V14.01,2013-08-07 02:08:00,
2013-08-06 20:13:00,50.0,47.2,30.00,West,261,0.0,0.0,90,0.00,,---,0.08,VWS V14.01,2013-08-07 02:13:00,
2013-08-06 20:18:00,50.0,47.2,30.00,West,261,0.0,0.0,90,0.00,,---,0.08,VWS V14.01,2013-08-07 02:18:00,
2013-08-06 20:23:00,49.9,47.1,30.00,West,261,0.0,0.0,90,0.00,,---,0.08,VWS V14.01,2013-08-07 02:23:00,
2013-08-06 20:28:00,49.9,47.1,30.00,West,261,0.0,0.0,90,0.00,,---,0.08,VWS V14.01,2013-08-07 02:28:00,
2013-08-06 20:33:00,49.7,47.2,30.00,West,261,0.0,0.0,91,0.00,,---,0.08,VWS V14.01,2013-08-07 02:33:00,
2013-08-06 20:38:00,49.6,47.1,30.01,West,261,0.0,0.0,91,0.00,,---,0.08,VWS V14.01,2013-08-07 02:38:00,
2013-08-06 20:43:00,49.4,46.9,30.01,West,261,0.0,0.0,91,0.00,,---,0.08,VWS V14.01,2013-08-07 02:43:00,
2013-08-06 20:48:00,49.2,46.7,30.01,West,261,0.0,0.0,91,0.00,,---,0.08,VWS V14.01,2013-08-07 02:48:00,
2013-08-06 20:53:00,49.2,46.7,30.02,West,261,0.0,0.0,91,0.00,,---,0.08,VWS V14.01,2013-08-07 02:53:00,
2013-08-06 20:58:00,49.1,46.6,30.02,West,261,0.0,0.0,91,0.00,,---,0.08,VWS V14.01,2013-08-07 02:58:00,
2013-08-06 21:03:00,49.1,46.6,30.02,West,261,0.0,0.0,91,0.00,,---,0.08,VWS V14.01,2013-08-07 03:03:00,
2013-08-06 21:08:00,48.9,46.7,30.02,West,261,0.0,0.0,92,0.00,,---,0.08,VWS V14.01,2013-08-07 03:08:00,
2013-08-06 21:13:00,48.8,46.6,30.02,West,261,3.0,3.0,92,0.00,,---,0.08,VWS V14.01,2013-08-07 03:13:00,
2013-08-06 21:18:00,48.7,46.5,30.02,West,261,3.0,3.0,92,0.00,,---,0.08,VWS V14.01,2013-08-07 03:18:00,
2013-08-06 21:23:00,48.6,46.4,30.02,West,261,0.0,0.0,92,0.00,,---,0.08,VWS V14.01,2013-08-07 03:23:00,
2013-08-06 21:28:00,48.6,46.7,30.01,West,261,0.0,0.0,93,0.00,,---,0.08,VWS V14.01,2013-08-07 03:28:00,
2013-08-06 21:33:00,48.5,46.6,30.01,West,261,0.0,1.0,93,0.00,,---,0.08,VWS V14.01,2013-08-07 03:33:00,
2013-08-06 21:38:00,48.5,46.6,30.01,West,261,0.0,0.0,93,0.00,,---,0.08,VWS V14.01,2013-08-07 03:38:00,
2013-08-06 21:43:00,48.6,46.7,30.01,West,261,0.0,0.0,93,0.00,,---,0.08,VWS V14.01,2013-08-07 03:43:00,
2013-08-06 21:48:00,48.6,46.7,30.01,West,261,2.0,2.0,93,0.00,,---,0.08,VWS V14.01,2013-08-07 03:48:00,
2013-08-06 21:53:00,48.5,46.6,30.01,West,261,0.0,0.0,93,0.00,,---,0.08,VWS V14.01,2013-08-07 03:53:00,
2013-08-06 21:58:00,48.5,46.6,30.01,West,261,0.0,0.0,93,0.00,,---,0.08,VWS V14.01,2013-08-07 03:58:00,
2013-08-06 22:01:00,48.5,46.6,30.01,West,261,0.0,0.0,93,0.00,,---,0.08,VWS V14.01,2013-08-07 04:01:00,
2013-08-06 22:06:00,48.3,46.1,30.01,West,261,3.0,3.0,92,0.00,,---,0.08,VWS V14.01,2013-08-07 04:06:00,
2013-08-06 22:11:00,48.0,45.8,30.01,West,261,3.0,4.0,92,0.00,,---,0.08,VWS V14.01,2013-08-07 04:11:00,
2013-08-06 22:16:00,47.9,45.7,30.01,West,261,0.0,0.0,92,0.00,,---,0.08,VWS V14.01,2013-08-07 04:16:00,
2013-08-06 22:22:00,47.8,45.6,30.01,West,261,0.0,0.0,92,0.00,,---,0.08,VWS V14.01,2013-08-07 04:22:00,
2013-08-06 22:27:00,47.7,45.8,30.01,West,261,3.0,3.0,93,0.00,,---,0.08,VWS V14.01,2013-08-07 04:27:00,
2013-08-06 22:32:00,47.7,45.8,30.01,West,261,0.0,0.0,93,0.00,,---,0.08,VWS V14.01,2013-08-07 04:32:00,
2013-08-06 22:36:00,47.6,45.7,30.01,West,261,0.0,0.0,93,0.00,,---,0.08,VWS V14.01,2013-08-07 04:36:00,
2013-08-06 22:42:00,47.2,45.0,30.00,West,261,3.0,4.0,92,0.00,,---,0.08,VWS V14.01,2013-08-07 04:42:00,
2013-08-06 22:47:00,46.8,44.6,30.00,West,261,4.0,5.0,92,0.00,,---,0.08,VWS V14.01,2013-08-07 04:47:00,
2013-08-06 22:52:00,46.6,44.4,30.01,West,261,4.0,4.0,92,0.00,,---,0.08,VWS V14.01,2013-08-07 04:52:00,
2013-08-06 22:57:00,46.6,44.4,30.01,West,261,0.0,0.0,92,0.00,,---,0.08,VWS V14.01,2013-08-07 04:57:00,
2013-08-06 23:02:00,46.4,44.2,30.01,West,261,0.0,0.0,92,0.00,,---,0.08,VWS V14.01,2013-08-07 05:02:00,
2013-08-06 23:07:00,46.2,44.0,30.01,West,261,1.0,1.0,92,0.00,,---,0.08,VWS V14.01,2013-08-07 05:07:00,
2013-08-06 23:12:00,46.0,43.8,30.01,West,261,6.0,6.0,92,0.00,,---,0.08,VWS V14.01,2013-08-07 05:12:00,
2013-08-06 23:17:00,45.9,43.7,30.01,West,261,3.0,6.0,92,0.00,,---,0.08,VWS V14.01,2013-08-07 05:17:00,
2013-08-06 23:22:00,45.9,43.7,30.00,West,277,5.0,5.0,92,0.00,,---,0.08,VWS V14.01,2013-08-07 05:22:00,
2013-08-06 23:27:00,45.9,43.7,30.00,West,277,0.0,2.0,92,0.00,,---,0.08,VWS V14.01,2013-08-07 05:27:00,
2013-08-06 23:32:00,46.0,43.8,30.00,West,277,0.0,0.0,92,0.00,,---,0.08,VWS V14.01,2013-08-07 05:32:00,
2013-08-06 23:37:00,45.9,43.7,30.00,West,277,0.0,0.0,92,0.00,,---,0.08,VWS V14.01,2013-08-07 05:37:00,
2013-08-06 23:42:00,45.8,43.6,30.00,West,277,0.0,0.0,92,0.00,,---,0.08,VWS V14.01,2013-08-07 05:42:00,
2013-08-06 23:47:00,45.8,43.6,30.00,West,277,0.0,0.0,92,0.00,,---,0.08,VWS V14.01,2013-08-07 05:47:00,
2013-08-06 23:52:00,45.5,43.3,30.00,West,277,3.0,4.0,92,0.00,,---,0.08,VWS V14.01,2013-08-07 05:52:00,
2013-08-06 23:57:00,45.2,43.3,30.00,West,277,0.0,2.0,93,0.00,,---,0.08,VWS V14.01,2013-08-07 05:57:00,